Regional Weather Roundup
Issued by NWS

Home | Current Version | Previous Version | Graphics & Text | Print | Product List | Glossary On
Versions: 1 2 3 4 5 6 7 8 9 10 11 12 13 14 15 16 17 18 19 20 21 22 23 24 25 26 27
000
ASUS45 KBOU 041907
RWRCO

WEATHER ROUNDUP FOR COLORADO
NATIONAL WEATHER SERVICE DENVER/BOULDER CO
1200 PM MST SUN DEC 04 2016

NOTE: "FAIR" INDICATES FEW OR NO CLOUDS BELOW 12000 FEET WITH NO
SIGNIFICANT WEATHER AND/OR OBSTRUCTIONS TO VISIBILITY.

COZ001>005-013-030-031-042000-
...NORTHWEST COLORADO...

CITY           SKY/WX    TMP DP  RH WIND       PRES   REMARKS
CRAIG          FAIR      31  12  45 E8        30.09F WCI  23
HAYDEN         FAIR      27  10  50 SE7       30.08F WCI  19
MEEKER         FAIR      24  13  62 CALM      30.12F
MOUNT WERNER   NOT AVBL
STEAMBOAT SPGS CLOUDY    21  14  72 CALM      30.08F
WALDEN           N/A     30  12  47 SW17G24   30.00F WCI  18
$$

COZ006>008-011-042000-
...WEST CENTRAL VALLEYS...

CITY           SKY/WX    TMP DP  RH WIND       PRES   REMARKS
GRAND JUNCTION FAIR      34  16  47 VRB3      30.20F
MONTROSE       FAIR      33  13  43 N3        30.19F
EAGLE          SUNNY     32  10  40 CALM      30.16F
RIFLE          FAIR      31  14  49 CALM      30.18F
DELTA          FAIR      35  13  39 CALM      30.19F
NUCLA          FAIR      32  12  43 W3        30.21F
$$

COZ017>023-064>068-042000-
...SOUTHWEST COLORADO...

CITY           SKY/WX    TMP DP  RH WIND       PRES   REMARKS
DURANGO        FAIR      34  22  61 CALM      30.14F
CORTEZ         FAIR      35  19  52 SW8       30.17F WCI  29
PAGOSA SPRINGS FAIR      34  14  44 CALM      30.13F
TELLURIDE      FAIR      36  12  37 CALM      30.14F
WOLF CREEK PAS FAIR      27   5  39 NW9       30.20F WCI  17
$$

COZ009-010-012-014-032>034-037-058>063-042000-
...CENTRAL COLORADO...

CITY           SKY/WX    TMP DP  RH WIND       PRES   REMARKS
ASPEN          FAIR      30  10  43 N7        30.07F WCI  23
BUENA VISTA    FAIR      37   2  22 CALM      30.02F
COPPER MTN     FAIR      25  10  54 W15G23    30.07F WCI  12
BERTHOUD PASS  CLOUDY    14   1  57 NW28G46   30.00F WCI  -6
COTTONWOOD PAS FAIR      37   5  25 W15G25    30.04F
GUNNISON       NOT AVBL
KREMMLING      CLOUDY    27  12  54 CALM      30.11F
LEADVILLE      FAIR      31   7  36 NW7       30.05F WCI  24
MONARCH PASS   FAIR      18   3  53 W39       30.17F WCI  -4
SALIDA         FAIR      42   9  25 W5        30.09F
SUNLIGHT       FAIR      21  18  86 SW10G17   30.13F WCI  10
WILKERSON PASS FAIR      30   7  37 NW16G26   30.02F WCI  19
$$

COZ069>075-042000-
...SAN LUIS VALLEY/SANGRE DE CRISTO MOUNTAINS...

CITY           SKY/WX    TMP DP  RH WIND       PRES   REMARKS
ALAMOSA        FAIR      28  12  51 CALM      30.13F
LA VETA PASS   FAIR      30   5  34 NE20G33   30.07F WCI  18
SAGUACHE       FAIR      30  10  43 SE7       30.13F WCI  23
$$

COZ035-036-038>040-042000-
...NORTHERN COLORADO FRONT RANGE...

CITY           SKY/WX    TMP DP  RH WIND       PRES   REMARKS
DENVER INTL AP FAIR      51   8  17 W20G25    29.90F
DMNS CITY PARK   N/A     52   3  13 E3G13     29.90F
AURORA         MOSUNNY   50   5  16 N5        29.91F
FRONT RANGE AP NOT AVBL
ERIE MUNI ARPT FAIR      49   9  19 W13G18    29.90F
BOULDER MUN AP FAIR      50  14  23 NW10G22   29.89F
CENTENNIAL     FAIR      50   2  14 CALM      29.91F
BROOMFIELD     MOSUNNY   54  12  19 NW24G31   29.91F
FORT COLLINS   FAIR      36  12  38 CALM      29.92F
LONGMONT       FAIR      38  14  37 S3        29.93F
$$

COZ041-046-047-076>085-087-088-042000-
...PIKES PEAK/PALMER DIVIDE AND SOUTHERN FOOTHILLS...

CITY           SKY/WX    TMP DP  RH WIND       PRES   REMARKS
COLO. SPRINGS  FAIR      38  10  31 SE9       29.97F
A. F. ACADEMY  FAIR      39   9  29 S7        29.94F
SCHRIEVER AFB  NOT AVBL
ELLICOTT       LGT RAIN N/A N/A N/A SW10      29.96F
FALCON         FAIR      40   7  25 S8        29.97F
FORT CARSON    FAIR      39   9  29 S5        29.95F
LIMON          FAIR      44   5  20 S18       29.94F
MONUMENT HILL  FAIR      46   5  18 CALM      29.94F
TRINIDAD       FAIR      43  12  28 SE5       30.00F
$$

COZ042>045-048>051-090-091-042000-
...NORTHEAST COLORADO...

CITY           SKY/WX    TMP DP  RH WIND       PRES   REMARKS
GREELEY ARPT   FAIR      37  13  37 W3        29.93F
AKRON          FAIR      46   7  20 SW12G20   29.92F
BURLINGTON     FAIR      47   7  19 SW16      29.97F
WRAY           NOT AVBL
STERLING       FAIR      43  14  31 SW12      29.91F
HOLYOKE        FAIR      52  12  20 SW14      29.94F
FORT MORGAN    FAIR      43  13  29 SE3       29.92F
$$

COZ086-089-092>099-042000-
...SOUTHEAST COLORADO...

CITY           SKY/WX    TMP DP  RH WIND       PRES   REMARKS
PUEBLO         FAIR      41  15  35 SE6       29.98F
LA JUNTA       FAIR      43  22  43 S5        30.01F
LAMAR          FAIR      47  19  33 SW7       30.01F
SPRINGFIELD      N/A     44  13  28 SE6       30.03F
$$




USA.gov is the U.S. government's official web portal to all federal, state and local government web resources and services.